Regional Weather Roundup
Issued by NWS

Home | Current Version | Previous Version | Graphics & Text | Print | Product List | Glossary On
Versions: 1 2 3 4 5 6 7 8 9 10 11 12 13 14 15 16 17 18 19 20 21 22 23 24 25 26 27 28
000
ASUS45 KCYS 191110
RWRWY

WYOMING REGIONAL WEATHER ROUNDUP
NATIONAL WEATHER SERVICE CHEYENNE WY
400 AM MST SUN FEB 19 2017

NOTE:  "FAIR" INDICATES FEW OR NO CLOUDS BELOW 12,000 FEET
WITH NO SIGNIFICANT WEATHER AND/OR OBSTRUCTIONS TO VISIBILITY.

WYZ001-191200-
YELLOWSTONE NATIONAL PARK

CITY           SKY/WX    TMP DP  RH WIND       PRES   REMARKS
LK YELLOWSTONE   N/A     30  30 100 CALM      29.57F
W YELLOWSTONE  NOT AVBL

$$
WYZ002>013-054>058-071-098>099-191200-
NORTHERN WYOMING

CITY           SKY/WX    TMP DP  RH WIND       PRES   REMARKS
JACKSON        CLOUDY    34  34 100 W8        29.57F WCI  27
CODY           FAIR      34  27  75 SE9       29.48F WCI  27
GREYBULL       FAIR      42  32  67 SE9       29.50S
WORLAND        FAIR      35  32  88 SE14      29.51S WCI  26
SHERIDAN       FAIR      30  26  85 VRB7      29.46F WCI  23
BUFFALO        FAIR      46  28  49 S20       29.49F
GILLETTE       FAIR      43  33  68 S21       29.52F
HULETT         FAIR      50  32  50 S18G25    29.54S
NEWCASTLE      FAIR      43  30  61 E9        29.60F

$$
WYZ014>020-022>026-101>103-191200-
CENTRAL WYOMING

CITY           SKY/WX    TMP DP  RH WIND       PRES   REMARKS
BIG PINEY      CLOUDY    29  27  92 SE9       29.64F WCI  20
PINEDALE       CLOUDY    32  30  93 SE7       29.66S WCI  26
DUBOIS         FAIR      32  27  80 E7        29.55F WCI  26
LANDER         NOT AVBL
RIVERTON       FAIR      28  27  96 CALM      29.55F
CASPER         FAIR      38  30  73 SW13      29.62S WCI  30
DOUGLAS        FAIR      38  29  70 MISG      29.63F

$$
WYZ021-027>030-104>119-191200-
SOUTHERN WYOMING

CITY           SKY/WX    TMP DP  RH WIND       PRES   REMARKS
EVANSTON       CLOUDY    36  28  73 SW13      29.64S WCI  27
KEMMERER         N/A     30  28  93 CALM      29.65S
FORT BRIDGER   CLOUDY    34  33  97 CALM      29.67S
ROCK SPRINGS   FAIR      39  29  67 S14       29.65F WCI  31
DIXON            N/A     31  29  92 CALM      29.76S
RAWLINS        FAIR      34  27  75 W6        29.71F WCI  29
SARATOGA       CLOUDY    32  28  86 W5        29.72F WCI  27
LARAMIE        FAIR      23  21  92 S7        29.73S WCI  15
CHEYENNE       FAIR      36  25  64 W12       29.67R WCI  28
TORRINGTON     FAIR      33  25  72 NW7       29.62S WCI  27
PINE BLUFFS    FAIR      30  27  86 SW14      29.66R WCI  20

$$




USA.gov is the U.S. government's official web portal to all federal, state and local government web resources and services.